Wind_Speed
50 51 51 51 52 53 55 56 57 57 56 56 57 57 57 57 56 56 56 57 57 57 57 57 57 57 58 58 58 59 59 59 59 60 60 60 60 61
51 52 53 54 54 55 56 56 57 58 57 56 56 55 55 55 55 55 56 56 56 56 57 58 58 59 59 59 59 59 59 59 59 59 59 59 60 60
52 53 54 55 55 55 56 57 57 58 58 55 54 53 53 53 54 55 55 56 56 57 58 59 59 59 59 60 59 59 59 59 59 59 59 59 59 59
53 54 55 55 55 56 56 56 56 56 55 54 52 52 53 53 54 55 56 56 56 57 57 58 58 59 59 59 58 58 58 57 57 57 57 57 57 56
53 54 54 55 56 56 55 54 54 53 54 54 52 52 53 54 54 55 55 55 56 56 56 57 57 57 57 57 56 55 54 54 54 54 54 54 54 53
53 54 55 55 55 54 54 52 52 52 52 52 53 53 53 53 54 54 54 54 54 54 55 55 55 55 55 54 53 53 52 51 51 51 51 51 51 51
52 53 54 53 53 52 51 51 51 51 51 52 53 53 53 54 54 54 53 53 53 53 53 54 53 53 53 52 51 50 50 49 49 49 49 49 49 49
52 52 52 51 51 51 50 50 51 51 52 53 53 53 53 53 53 53 52 52 52 52 52 52 52 52 52 52 50 49 48 48 48 48 48 48 47 47
51 51 50 50 50 49 50 51 51 53 54 54 54 53 52 52 52 52 52 52 52 52 51 50 50 50 51 50 49 47 46 45 45 46 46 46 45 45
50 50 50 50 50 50 51 52 52 53 54 54 54 52 52 52 52 52 52 52 52 51 50 49 48 48 48 47 46 45 44 44 44 44 43 43 42 41
50 50 50 50 50 51 51 52 52 52 52 52 52 52 53 53 52 52 51 51 50 50 49 48 46 46 45 45 45 44 44 44 43 42 41 40 40 39
49 49 49 49 50 50 51 51 51 51 51 51 51 52 52 51 51 51 51 51 50 48 47 46 46 46 44 43 43 42 42 41 40 39 38 38 37 37
48 47 47 48 48 49 50 50 50 49 48 48 49 49 49 50 50 50 51 50 49 47 46 46 46 46 45 41 40 40 39 38 36 35 35 35 36 36
45 46 46 46 47 48 49 48 48 48 47 47 47 48 48 48 49 49 49 48 47 46 45 46 45 45 43 39 37 35 35 34 34 34 34 34 34 34
44 45 45 46 47 47 47 47 47 47 47 47 47 47 47 47 47 46 46 45 45 45 45 45 44 42 40 37 35 33 32 32 33 33 33 33 32 31
44 44 45 45 46 46 46 46 47 47 47 46 46 46 45 45 44 43 43 43 43 43 44 43 41 39 37 35 34 32 31 31 31 31 30 30 29 28
43 43 44 45 45 45 45 45 45 45 45 44 44 43 43 42 42 42 42 42 41 40 39 38 37 35 34 33 32 30 30 30 30 29 28 27 27 27
43 43 43 43 43 44 44 43 43 42 42 41 41 40 40 40 40 41 41 39 38 38 37 36 34 33 32 31 30 29 29 29 28 28 28 27 25 25
41 42 41 41 41 41 40 40 39 39 39 38 38 38 39 39 40 39 39 38 37 36 35 34 33 31 30 30 29 29 28 27 27 27 27 26 25 23
40 39 39 39 38 37 36 36 36 36 36 37 37 38 39 39 39 38 37 36 35 34 33 32 31 30 30 30 28 26 26 26 25 25 25 24 22 21
36 35 35 34 34 33 33 33 34 34 35 36 37 38 38 38 38 37 35 34 33 32 31 30 30 29 29 28 25 24 24 24 24 24 22 20 19 18
33 32 32 32 32 32 32 33 33 34 35 35 36 37 37 37 35 34 33 32 31 30 29 29 28 27 26 25 23 23 22 22 22 22 20 19 18 15
31 31 31 31 31 31 32 33 34 34 34 35 36 36 35 34 33 32 31 29 28 28 27 27 26 25 24 23 22 21 20 20 18 17 16 15 14 13
Wind_Direction
285 286 286 287 289 289 290 291 290 290 290 291 291 291 291 291 291 291 291 291 291 291 291 291 290 290 289 289 288 287 286 284 283 282 281 280 279 277
285 286 287 287 289 289 290 290 291 292 292 293 292 292 292 292 292 292 292 292 292 292 292 292 292 291 291 290 290 288 287 285 285 283 282 280 279 278
285 287 288 288 288 289 290 291 291 292 293 294 294 294 293 293 293 293 293 293 294 294 294 293 293 292 292 292 291 288 287 286 285 284 283 281 280 278
286 287 288 288 288 289 290 291 292 293 294 294 294 294 294 294 294 294 295 295 295 295 295 295 294 294 293 292 291 289 288 287 286 285 283 282 281 279
286 287 288 288 289 290 290 291 292 293 294 294 295 295 295 295 296 296 296 296 296 296 296 296 296 296 295 294 292 290 288 287 286 286 284 283 282 280
287 288 288 288 289 290 290 291 292 294 294 295 295 296 296 297 297 297 297 297 297 297 297 297 297 297 296 295 294 291 289 288 287 287 286 285 284 281
287 288 289 289 289 290 291 292 293 294 294 295 296 296 297 297 297 298 298 298 298 298 299 299 298 298 297 297 295 293 291 290 289 289 288 287 285 283
287 288 288 288 289 290 291 292 293 294 295 296 297 297 297 298 298 299 299 299 299 299 299 299 299 299 298 298 297 294 292 291 291 290 289 288 286 284
287 288 288 288 290 290 291 291 293 294 295 296 297 298 299 299 299 299 300 300 301 301 300 300 299 299 299 299 297 295 293 293 292 292 291 290 287 285
287 287 288 289 290 290 291 292 293 294 295 296 297 298 299 299 300 300 300 301 302 302 302 301 300 300 300 299 299 297 296 295 294 293 292 291 289 287
286 287 289 289 289 290 291 292 294 295 295 296 297 298 299 299 300 300 301 301 302 302 302 301 300 300 300 300 299 297 297 296 295 294 293 292 291 288
286 287 288 289 290 291 292 293 294 295 295 296 297 298 299 300 301 301 302 302 302 302 301 300 300 301 301 299 298 296 296 296 295 294 294 293 292 291
287 287 288 289 291 293 293 294 295 296 296 296 298 298 299 300 301 301 302 303 303 303 302 301 301 302 302 299 297 296 296 295 295 295 295 295 294 293
288 288 289 290 292 293 294 295 296 297 297 298 299 300 300 301 301 302 303 304 304 304 303 303 303 303 302 300 298 297 296 295 295 295 295 296 297 295
289 290 291 292 293 294 294 295 296 297 298 298 300 300 301 302 303 303 303 304 305 305 305 304 304 303 303 301 300 298 296 296 296 297 297 298 297 295
290 291 293 293 293 294 295 296 297 298 299 299 300 301 302 303 303 303 304 304 305 305 306 306 305 305 304 303 301 300 298 298 299 299 299 299 298 297
291 292 292 293 293 294 295 296 297 298 299 300 301 302 302 303 304 305 305 304 305 306 306 305 305 305 304 304 303 301 300 302 303 302 302 302 301 300
292 292 292 293 294 295 295 296 297 298 300 301 302 303 303 305 306 307 307 306 306 306 306 305 304 304 304 305 304 303 302 303 303 303 304 304 303 301
291 292 293 293 294 295 296 296 297 299 300 302 303 304 305 306 307 307 307 306 306 306 306 305 304 304 303 303 303 303 303 303 302 303 304 304 304 303
292 292 293 295 295 296 297 298 299 301 302 304 305 305 306 307 307 307 307 307 307 306 307 306 305 305 304 305 305 305 304 304 303 303 304 305 304 304
292 293 295 296 296 297 298 300 302 303 305 306 306 307 307 307 307 307 307 307 307 306 306 307 306 306 306 307 306 306 307 308 308 308 307 305 305 304
293 294 295 296 297 298 300 302 303 305 306 306 307 308 308 308 308 308 308 308 307 307 307 307 307 307 308 308 308 308 309 310 311 311 309 308 308 304
293 294 296 298 298 300 302 303 304 305 305 306 307 309 309 309 309 309 309 308 308 307 308 308 309 310 309 309 309 308 309 311 312 312 313 313 315 315
Height
5712 5709 5707 5704 5701 5697 5694 5690 5686 5683 5683 5680 5675 5671 5665 5661 5656 5652 5648 5644 5641 5637 5633 5630 5626 5622 5619 5616 5612 5609 5606 5603 5600 5598 5596 5595 5593 5592
5700 5698 5695 5691 5688 5685 5681 5676 5672 5667 5665 5665 5660 5655 5650 5645 5641 5637 5633 5629 5625 5621 5617 5613 5609 5606 5602 5598 5594 5591 5587 5584 5582 5580 5577 5575 5574 5572
5688 5685 5682 5679 5675 5671 5667 5663 5658 5653 5650 5649 5645 5641 5636 5631 5627 5622 5618 5614 5610 5606 5601 5596 5592 5588 5584 5580 5576 5572 5569 5566 5563 5561 5558 5556 5554 5553
5676 5673 5670 5666 5662 5658 5654 5649 5645 5640 5636 5634 5632 5627 5622 5618 5613 5609 5604 5599 5595 5590 5585 5580 5575 5571 5566 5562 5558 5554 5550 5547 5545 5542 5540 5538 5536 5534
5663 5660 5657 5653 5649 5645 5640 5636 5632 5628 5623 5620 5617 5614 5609 5604 5599 5595 5590 5585 5580 5575 5569 5564 5559 5554 5549 5544 5540 5536 5533 5530 5528 5525 5523 5521 5518 5517
5651 5647 5644 5640 5636 5632 5628 5624 5620 5616 5611 5607 5603 5600 5596 5591 5585 5581 5577 5572 5566 5560 5554 5549 5543 5538 5533 5529 5525 5521 5517 5514 5511 5509 5506 5504 5502 5500
5638 5634 5630 5626 5622 5619 5615 5612 5608 5603 5599 5594 5591 5587 5582 5577 5572 5567 5562 5558 5553 5547 5541 5535 5529 5524 5519 5514 5510 5505 5502 5499 5496 5493 5491 5488 5486 5484
5625 5622 5618 5614 5610 5607 5603 5599 5595 5591 5586 5582 5578 5573 5569 5563 5558 5553 5548 5544 5541 5536 5528 5523 5516 5510 5505 5500 5496 5491 5488 5485 5482 5479 5476 5473 5470 5469
5612 5609 5606 5602 5598 5595 5592 5588 5583 5578 5573 5569 5564 5560 5555 5551 5546 5541 5535 5530 5525 5520 5515 5510 5503 5497 5491 5486 5481 5477 5474 5471 5468 5464 5462 5459 5456 5454
5600 5597 5593 5590 5586 5583 5579 5576 5571 5566 5561 5556 5551 5547 5542 5537 5532 5527 5522 5518 5512 5506 5500 5497 5492 5486 5480 5473 5468 5464 5461 5458 5454 5451 5448 5445 5442 5440
5588 5585 5581 5578 5574 5570 5566 5563 5559 5553 5548 5543 5538 5533 5529 5524 5519 5514 5509 5504 5500 5495 5488 5483 5479 5475 5470 5463 5457 5452 5449 5445 5442 5439 5435 5432 5429 5427
5576 5572 5569 5565 5561 5557 5553 5549 5546 5541 5536 5531 5527 5521 5516 5511 5506 5501 5496 5490 5486 5482 5476 5471 5466 5461 5459 5455 5448 5442 5438 5434 5431 5428 5424 5421 5417 5415
5564 5560 5557 5553 5549 5545 5541 5537 5532 5528 5524 5520 5515 5510 5505 5500 5494 5488 5483 5477 5473 5468 5463 5459 5454 5449 5444 5442 5439 5433 5428 5424 5421 5418 5414 5411 5407 5404
5551 5548 5545 5541 5538 5533 5529 5525 5520 5516 5512 5508 5504 5499 5493 5488 5483 5477 5471 5465 5460 5456 5451 5446 5442 5437 5433 5430 5427 5423 5418 5414 5411 5408 5405 5402 5398 5394
5540 5537 5533 5530 5526 5522 5518 5513 5509 5505 5501 5497 5492 5487 5482 5477 5471 5466 5460 5455 5449 5444 5439 5434 5430 5426 5422 5418 5416 5413 5410 5406 5402 5399 5396 5392 5389 5385
5529 5526 5522 5518 5514 5510 5506 5502 5498 5493 5489 5485 5480 5475 5470 5465 5460 5455 5450 5446 5441 5435 5429 5424 5420 5416 5412 5409 5406 5403 5399 5396 5394 5390 5386 5383 5380 5376
5518 5515 5511 5508 5503 5499 5495 5491 5487 5482 5478 5473 5469 5465 5460 5455 5450 5445 5440 5435 5431 5426 5421 5415 5411 5406 5403 5400 5397 5394 5390 5387 5384 5380 5378 5375 5373 5368
5507 5504 5500 5496 5492 5488 5484 5480 5476 5471 5467 5463 5459 5454 5450 5445 5440 5435 5430 5426 5421 5417 5412 5408 5404 5400 5396 5392 5389 5385 5383 5379 5376 5373 5369 5367 5365 5361
5496 5492 5489 5485 5481 5477 5473 5469 5466 5462 5458 5453 5449 5445 5441 5436 5431 5426 5422 5417 5413 5408 5404 5399 5395 5392 5389 5386 5384 5378 5375 5372 5369 5366 5363 5359 5357 5354
5485 5481 5478 5474 5471 5467 5464 5460 5456 5453 5449 5445 5440 5436 5432 5427 5422 5418 5413 5409 5404 5400 5396 5392 5388 5384 5380 5378 5376 5373 5368 5364 5362 5360 5357 5353 5350 5348
5475 5472 5468 5465 5461 5458 5455 5452 5448 5444 5440 5436 5432 5427 5423 5418 5414 5409 5405 5400 5396 5393 5389 5385 5381 5377 5373 5371 5369 5367 5363 5358 5355 5352 5350 5347 5345 5343
5466 5463 5460 5456 5453 5450 5447 5444 5440 5436 5432 5428 5424 5419 5414 5410 5405 5401 5397 5393 5389 5385 5382 5379 5375 5371 5368 5365 5362 5360 5357 5354 5350 5346 5343 5341 5339 5337
5457 5455 5452 5449 5446 5443 5439 5436 5432 5428 5424 5420 5416 5411 5406 5402 5398 5394 5390 5386 5382 5379 5376 5372 5369 5365 5362 5359 5356 5354 5351 5349 5346 5343 5340 5337 5334 5332